Time,TemperatureF,DewpointF,PressureIn,WindDirection,WindDirectionDegrees,WindSpeedMPH,WindSpeedGustMPH,Humidity,HourlyPrecipIn,Conditions,Clouds,dailyrainin,SolarRadiationWatts/m^2,SoftwareType,DateUTC
2013-11-03 00:03:00,26.0,4.0,-100.00,SW,228,3.0,6.0,38,0.00,,,0.00,0.000000,,2013-11-03 06:03:00,
2013-11-03 00:43:00,25.0,4.0,-100.00,WSW,244,2.0,6.0,39,0.00,,,0.00,0.000000,,2013-11-03 06:43:00,
2013-11-03 00:53:00,25.0,4.0,-100.00,WSW,244,2.0,6.0,39,0.00,,,0.00,0.000000,,2013-11-03 06:53:00,
2013-11-03 01:01:00,25.0,4.0,-100.00,WSW,244,2.0,6.0,39,0.00,,,0.00,0.000000,,2013-11-03 07:01:00,
2013-11-03 01:42:00,23.0,4.0,-100.00,SE,138,1.0,4.0,44,0.00,,,0.00,0.000000,,2013-11-03 07:42:00,
2013-11-03 01:52:00,23.0,4.0,-100.00,SE,138,1.0,4.0,44,0.00,,,0.00,0.000000,,2013-11-03 07:52:00,
2013-11-03 01:02:00,23.0,4.0,-100.00,SE,138,1.0,4.0,44,0.00,,,0.00,0.000000,,2013-11-03 08:02:00,
2013-11-03 01:42:00,25.0,6.0,-100.00,NNW,328,2.0,6.0,43,0.00,,,0.00,0.000000,,2013-11-03 08:42:00,
2013-11-03 01:52:00,25.0,6.0,-100.00,NNW,328,2.0,6.0,43,0.00,,,0.00,0.000000,,2013-11-03 08:52:00,
2013-11-03 02:02:00,25.0,6.0,-100.00,NNW,328,2.0,6.0,43,0.00,,,0.00,0.000000,,2013-11-03 09:02:00,
2013-11-03 04:43:00,29.0,6.0,-100.00,NNW,335,3.0,9.0,37,0.00,,,0.00,0.000000,,2013-11-03 11:43:00,
2013-11-03 04:52:00,29.0,6.0,-100.00,NNW,335,3.0,9.0,37,0.00,,,0.00,0.000000,,2013-11-03 11:52:00,
2013-11-03 05:02:00,29.0,6.0,-100.00,NNW,335,3.0,9.0,37,0.00,,,0.00,0.000000,,2013-11-03 12:02:00,
2013-11-03 05:42:00,29.0,7.0,-100.00,SW,235,3.0,8.0,38,0.00,,,0.00,0.000000,,2013-11-03 12:42:00,
2013-11-03 05:52:00,29.0,7.0,-100.00,SW,235,3.0,8.0,38,0.00,,,0.00,0.000000,,2013-11-03 12:52:00,
2013-11-03 06:02:00,29.0,7.0,-100.00,SW,235,3.0,8.0,38,0.00,,,0.00,0.000000,,2013-11-03 13:02:00,
2013-11-03 06:42:00,30.0,4.0,-100.00,SSW,202,3.0,8.0,32,0.00,,,0.00,0.000000,,2013-11-03 13:42:00,
2013-11-03 06:52:00,30.0,4.0,-100.00,SSW,202,3.0,8.0,32,0.00,,,0.00,0.000000,,2013-11-03 13:52:00,
2013-11-03 07:02:00,30.0,4.0,-100.00,SSW,202,3.0,8.0,32,0.00,,,0.00,0.000000,,2013-11-03 14:02:00,
2013-11-03 07:42:00,31.0,6.0,-100.00,NE,43,2.0,12.0,34,0.00,,,0.00,11.000000,,2013-11-03 14:42:00,
2013-11-03 07:52:00,31.0,6.0,-100.00,NE,43,2.0,12.0,34,0.00,,,0.00,11.000000,,2013-11-03 14:52:00,
2013-11-03 08:02:00,31.0,6.0,-100.00,NE,43,2.0,12.0,34,0.00,,,0.00,11.000000,,2013-11-03 15:02:00,
2013-11-03 08:43:00,39.0,9.0,-100.00,East,92,3.0,5.0,29,0.00,,,0.00,198.000000,,2013-11-03 15:43:00,
2013-11-03 08:53:00,39.0,9.0,-100.00,East,92,3.0,5.0,29,0.00,,,0.00,198.000000,,2013-11-03 15:53:00,
2013-11-03 09:03:00,39.0,9.0,-100.00,East,92,3.0,5.0,29,0.00,,,0.00,198.000000,,2013-11-03 16:03:00,
2013-11-03 09:43:00,45.0,6.0,-100.00,WNW,283,6.0,14.0,20,0.00,,,0.00,410.000000,,2013-11-03 16:43:00,
2013-11-03 09:53:00,45.0,6.0,-100.00,WNW,283,6.0,14.0,20,0.00,,,0.00,410.000000,,2013-11-03 16:53:00,
2013-11-03 10:03:00,45.0,6.0,-100.00,WNW,283,6.0,14.0,20,0.00,,,0.00,410.000000,,2013-11-03 17:03:00,
2013-11-03 10:44:00,42.0,10.0,-100.00,West,259,10.0,22.0,27,0.00,,,0.00,472.000000,,2013-11-03 17:44:00,
2013-11-03 10:53:00,42.0,10.0,-100.00,West,259,10.0,22.0,27,0.00,,,0.00,472.000000,,2013-11-03 17:53:00,
2013-11-03 11:02:00,42.0,10.0,-100.00,West,259,10.0,22.0,27,0.00,,,0.00,472.000000,,2013-11-03 18:02:00,
2013-11-03 11:42:00,41.0,13.0,-100.00,WSW,246,8.0,31.0,31,0.00,,,0.00,251.000000,,2013-11-03 18:42:00,
2013-11-03 11:52:00,41.0,13.0,-100.00,WSW,246,8.0,31.0,31,0.00,,,0.00,251.000000,,2013-11-03 18:52:00,
2013-11-03 12:01:00,41.0,13.0,-100.00,WSW,246,8.0,31.0,31,0.00,,,0.00,251.000000,,2013-11-03 19:01:00,
2013-11-03 12:42:00,44.0,13.0,-100.00,SW,224,7.0,20.0,28,0.00,,,0.00,490.000000,,2013-11-03 19:42:00,
2013-11-03 12:53:00,44.0,13.0,-100.00,SW,224,7.0,20.0,28,0.00,,,0.00,490.000000,,2013-11-03 19:53:00,
2013-11-03 13:01:00,44.0,13.0,-100.00,SW,224,7.0,20.0,28,0.00,,,0.00,490.000000,,2013-11-03 20:01:00,
2013-11-03 13:42:00,47.0,12.0,-100.00,WSW,237,10.0,26.0,24,0.00,,,0.00,722.000000,,2013-11-03 20:42:00,
2013-11-03 13:52:00,47.0,12.0,-100.00,WSW,237,10.0,26.0,24,0.00,,,0.00,722.000000,,2013-11-03 20:52:00,
2013-11-03 14:02:00,47.0,12.0,-100.00,WSW,237,10.0,26.0,24,0.00,,,0.00,722.000000,,2013-11-03 21:02:00,
2013-11-03 14:43:00,46.0,13.0,-100.00,WSW,254,10.0,27.0,26,0.00,,,0.00,669.000000,,2013-11-03 21:43:00,
2013-11-03 14:55:00,46.0,13.0,-100.00,WSW,254,10.0,27.0,26,0.00,,,0.00,669.000000,,2013-11-03 21:55:00,
2013-11-03 15:03:00,46.0,13.0,-100.00,WSW,254,10.0,27.0,26,0.00,,,0.00,669.000000,,2013-11-03 22:03:00,
2013-11-03 15:43:00,42.0,13.0,-100.00,WSW,254,7.0,21.0,30,0.00,,,0.00,435.000000,,2013-11-03 22:43:00,
2013-11-03 15:52:00,42.0,13.0,-100.00,WSW,254,7.0,21.0,30,0.00,,,0.00,435.000000,,2013-11-03 22:52:00,
2013-11-03 16:02:00,42.0,13.0,-100.00,WSW,254,7.0,21.0,30,0.00,,,0.00,435.000000,,2013-11-03 23:02:00,
2013-11-03 16:42:00,41.0,11.0,-100.00,West,265,3.0,12.0,29,0.00,,,0.00,117.000000,,2013-11-03 23:42:00,
2013-11-03 16:53:00,41.0,11.0,-100.00,West,265,3.0,12.0,29,0.00,,,0.00,117.000000,,2013-11-03 23:53:00,
2013-11-03 17:01:00,41.0,11.0,-100.00,West,265,3.0,12.0,29,0.00,,,0.00,117.000000,,2013-11-04 00:01:00,
2013-11-03 17:42:00,38.0,9.0,-100.00,SW,228,8.0,22.0,29,0.00,,,0.00,23.000000,,2013-11-04 00:42:00,
2013-11-03 17:52:00,38.0,9.0,-100.00,SW,228,8.0,22.0,29,0.00,,,0.00,23.000000,,2013-11-04 00:52:00,
2013-11-03 18:02:00,38.0,9.0,-100.00,SW,228,8.0,22.0,29,0.00,,,0.00,23.000000,,2013-11-04 01:02:00,
2013-11-03 18:42:00,36.0,10.0,-100.00,South,178,6.0,25.0,33,0.00,,,0.00,0.000000,,2013-11-04 01:42:00,
2013-11-03 18:52:00,36.0,10.0,-100.00,South,178,6.0,25.0,33,0.00,,,0.00,0.000000,,2013-11-04 01:52:00,
2013-11-03 19:02:00,36.0,10.0,-100.00,South,178,6.0,25.0,33,0.00,,,0.00,0.000000,,2013-11-04 02:02:00,
2013-11-03 19:42:00,35.0,11.0,-100.00,SW,224,7.0,18.0,37,0.00,,,0.00,0.000000,,2013-11-04 02:42:00,
2013-11-03 19:53:00,35.0,11.0,-100.00,SW,224,7.0,18.0,37,0.00,,,0.00,0.000000,,2013-11-04 02:53:00,
2013-11-03 20:02:00,35.0,11.0,-100.00,SW,224,7.0,18.0,37,0.00,,,0.00,0.000000,,2013-11-04 03:02:00,
2013-11-03 20:44:00,31.0,19.0,-100.00,NNW,346,7.0,26.0,60,0.00,,,0.00,0.000000,,2013-11-04 03:44:00,
2013-11-03 20:54:00,31.0,19.0,-100.00,NNW,346,7.0,26.0,60,0.00,,,0.00,0.000000,,2013-11-04 03:54:00,
2013-11-03 21:04:00,31.0,19.0,-100.00,NNW,346,7.0,26.0,60,0.00,,,0.00,0.000000,,2013-11-04 04:04:00,
2013-11-03 21:43:00,27.0,24.0,-100.00,NNE,24,4.0,12.0,88,0.00,,,0.00,0.000000,,2013-11-04 04:43:00,
2013-11-03 21:53:00,27.0,24.0,-100.00,NNE,24,4.0,12.0,88,0.00,,,0.00,0.000000,,2013-11-04 04:53:00,
2013-11-03 22:03:00,27.0,24.0,-100.00,NNE,24,4.0,12.0,88,0.00,,,0.00,0.000000,,2013-11-04 05:03:00,
2013-11-03 22:44:00,26.0,24.0,-100.00,NNE,24,6.0,10.0,92,0.00,,,0.00,0.000000,,2013-11-04 05:44:00,
2013-11-03 22:53:00,26.0,24.0,-100.00,NNE,24,6.0,10.0,92,0.00,,,0.00,0.000000,,2013-11-04 05:53:00,
2013-11-03 23:02:00,26.0,24.0,-100.00,NNE,24,6.0,10.0,92,0.00,,,0.00,0.000000,,2013-11-04 06:02:00,
2013-11-03 23:42:00,21.0,16.0,-100.00,NNE,14,7.0,14.0,79,0.00,,,0.00,0.000000,,2013-11-04 06:42:00,
2013-11-03 23:52:00,21.0,16.0,-100.00,NNE,14,7.0,14.0,79,0.00,,,0.00,0.000000,,2013-11-04 06:52:00,